TimeEST,TemperatureF,Dew PointF,Humidity,Sea Level PressureIn,VisibilityMPH,Wind Direction,Wind SpeedMPH,Gust SpeedMPH,PrecipitationIn,Events,Conditions,WindDirDegrees,DateUTC
1:54 AM,28.0,19.9,72,30.19,10.0,Calm,Calm,-,N/A,,Overcast,0,2013-01-16 06:54:00
2:54 AM,28.0,21.0,75,30.17,9.0,Calm,Calm,-,N/A,,Overcast,0,2013-01-16 07:54:00
3:08 AM,28.4,21.2,74,30.13,2.5,Calm,Calm,-,0.00,Snow,Light Snow,0,2013-01-16 08:08:00
3:18 AM,26.6,21.2,80,30.11,1.5,Calm,Calm,-,0.00,Snow,Light Snow,0,2013-01-16 08:18:00
3:33 AM,26.6,23.0,86,30.10,1.0,NNE,3.5,-,0.00,Snow,Light Snow,30,2013-01-16 08:33:00
3:54 AM,26.1,24.1,92,30.13,1.0,NE,3.5,-,0.02,Snow,Light Snow,40,2013-01-16 08:54:00
4:34 AM,26.6,24.8,93,30.06,0.8,Calm,Calm,-,0.03,Snow,Light Snow,0,2013-01-16 09:34:00
4:44 AM,26.6,24.8,93,30.06,0.8,North,4.6,-,0.05,Snow,Light Snow,360,2013-01-16 09:44:00
4:54 AM,26.1,24.1,92,30.09,0.5,NE,3.5,-,0.06,Fog-Snow,Snow,40,2013-01-16 09:54:00
5:49 AM,26.6,24.8,93,30.04,1.0,Calm,Calm,-,0.08,Snow,Light Snow,0,2013-01-16 10:49:00
5:54 AM,27.0,25.0,92,30.08,1.0,ENE,3.5,-,0.09,Snow,Light Snow,60,2013-01-16 10:54:00
6:11 AM,26.6,24.8,93,30.04,0.8,NE,4.6,-,0.01,Snow,Light Snow,50,2013-01-16 11:11:00
6:54 AM,27.0,25.0,92,30.06,1.2,ENE,4.6,-,0.04,Snow,Light Snow,60,2013-01-16 11:54:00
7:39 AM,26.6,24.8,93,30.01,0.5,NE,3.5,-,0.03,Fog-Snow,Snow,50,2013-01-16 12:39:00
7:49 AM,26.6,24.8,93,30.00,0.8,NE,4.6,-,0.03,Snow,Light Snow,50,2013-01-16 12:49:00
7:54 AM,27.0,25.0,92,30.04,1.2,ENE,4.6,-,0.03,Snow,Light Snow,60,2013-01-16 12:54:00
8:10 AM,26.6,24.8,93,30.00,1.8,ENE,3.5,-,0.00,Snow,Light Snow,60,2013-01-16 13:10:00
8:20 AM,26.6,26.6,100,29.99,2.5,NNE,4.6,-,0.00,Snow,Light Snow,30,2013-01-16 13:20:00
8:30 AM,26.6,26.6,100,29.99,4.0,Calm,Calm,-,0.00,,Overcast,0,2013-01-16 13:30:00
8:54 AM,28.0,26.1,92,30.01,5.0,Calm,Calm,-,0.00,,Overcast,0,2013-01-16 13:54:00
9:02 AM,28.4,26.6,93,29.96,2.5,Calm,Calm,-,N/A,,Overcast,0,2013-01-16 14:02:00
9:08 AM,28.4,26.6,93,29.96,2.0,NNE,3.5,-,0.01,,Overcast,20,2013-01-16 14:08:00
9:15 AM,26.6,26.6,100,29.94,1.8,NE,5.8,-,0.01,,Overcast,40,2013-01-16 14:15:00
9:54 AM,28.0,27.0,96,29.99,1.2,NNE,3.5,-,0.01,Rain,Light Freezing Rain,20,2013-01-16 14:54:00
10:04 AM,28.4,26.6,93,29.94,1.0,NNE,3.5,-,0.01,Rain,Light Freezing Rain,30,2013-01-16 15:04:00
10:54 AM,28.9,28.0,96,29.95,1.5,NNE,3.5,-,0.02,Rain,Light Freezing Rain,20,2013-01-16 15:54:00
11:09 AM,28.4,28.4,100,29.89,2.0,Calm,Calm,-,0.00,Rain,Light Freezing Rain,0,2013-01-16 16:09:00
11:29 AM,28.4,28.4,100,29.89,1.8,Calm,Calm,-,0.00,Rain,Light Freezing Rain,0,2013-01-16 16:29:00
11:39 AM,28.4,26.6,93,29.88,2.5,Calm,Calm,-,0.00,,Overcast,0,2013-01-16 16:39:00
11:54 AM,28.9,28.0,96,29.91,1.8,Calm,Calm,-,0.00,,Overcast,0,2013-01-16 16:54:00
12:26 PM,28.4,28.4,100,29.89,0.8,West,4.6,-,0.01,Snow,Light Snow,280,2013-01-16 17:26:00
12:33 PM,30.2,28.4,93,29.87,0.8,Calm,Calm,-,0.02,Snow,Light Snow,0,2013-01-16 17:33:00
12:51 PM,30.2,28.4,93,29.84,1.0,Calm,Calm,-,0.03,Snow,Light Snow,0,2013-01-16 17:51:00
12:54 PM,30.0,28.9,96,29.88,1.0,Calm,Calm,-,0.03,Snow,Light Snow,0,2013-01-16 17:54:00
1:12 PM,30.2,28.4,93,29.78,2.0,ENE,3.5,-,0.01,Snow,Light Snow,60,2013-01-16 18:12:00
1:17 PM,30.2,28.4,93,29.79,1.8,NE,4.6,-,0.01,Snow,Light Snow,50,2013-01-16 18:17:00
1:31 PM,30.2,28.4,93,29.78,2.5,Calm,Calm,-,0.01,,Overcast,0,2013-01-16 18:31:00
1:38 PM,30.2,28.4,93,29.79,4.0,Calm,Calm,-,0.01,,Overcast,0,2013-01-16 18:38:00
1:54 PM,30.9,28.9,92,29.83,3.0,Calm,Calm,-,0.01,,Overcast,0,2013-01-16 18:54:00
2:01 PM,30.2,28.4,93,29.80,1.8,Calm,Calm,-,0.00,,Overcast,0,2013-01-16 19:01:00
2:09 PM,30.2,28.4,93,29.80,1.2,Calm,Calm,-,0.00,Rain,Light Freezing Rain,0,2013-01-16 19:09:00
2:16 PM,30.2,28.4,93,29.81,2.0,WNW,3.5,-,0.01,Rain,Light Freezing Rain,290,2013-01-16 19:16:00
2:33 PM,30.2,28.4,93,29.81,2.5,WNW,3.5,-,0.01,Rain,Light Freezing Rain,290,2013-01-16 19:33:00
2:38 PM,30.2,28.4,93,29.81,1.8,West,3.5,-,0.01,Snow,Light Snow,270,2013-01-16 19:38:00
2:52 PM,30.2,28.4,93,29.80,0.8,Calm,Calm,-,0.02,Snow,Light Snow,0,2013-01-16 19:52:00
3:13 PM,30.2,30.2,100,29.80,1.0,Calm,Calm,-,0.01,Snow,Light Snow,0,2013-01-16 20:13:00
3:40 PM,30.2,28.4,93,29.78,2.5,Calm,Calm,-,0.01,Snow,Light Snow,0,2013-01-16 20:40:00
3:43 PM,30.2,28.4,93,29.78,3.0,SE,3.5,-,0.01,Snow,Light Snow,130,2013-01-16 20:43:00
3:54 PM,30.9,30.0,96,29.82,8.0,Calm,Calm,-,0.01,,Overcast,0,2013-01-16 20:54:00
4:15 PM,30.2,30.2,100,29.78,5.0,NNE,3.5,-,N/A,,Overcast,20,2013-01-16 21:15:00
4:54 PM,30.9,30.0,96,29.83,5.0,Calm,Calm,-,N/A,,Overcast,0,2013-01-16 21:54:00
5:47 PM,30.2,30.2,100,29.78,6.0,SSE,3.5,-,N/A,,Overcast,150,2013-01-16 22:47:00
5:54 PM,30.9,30.0,96,29.81,9.0,Calm,Calm,-,N/A,,Overcast,0,2013-01-16 22:54:00
6:54 PM,30.9,30.0,96,29.83,10.0,SW,6.9,-,N/A,,Overcast,230,2013-01-16 23:54:00
7:54 PM,30.9,28.9,92,29.84,10.0,WSW,8.1,-,N/A,,Overcast,250,2013-01-17 00:54:00
8:54 PM,30.0,28.9,96,29.83,10.0,WSW,5.8,-,N/A,,Overcast,240,2013-01-17 01:54:00
9:54 PM,30.0,28.9,96,29.84,10.0,WSW,5.8,-,N/A,,Overcast,250,2013-01-17 02:54:00
10:54 PM,30.0,28.9,96,29.83,5.0,WSW,6.9,-,N/A,,Overcast,250,2013-01-17 03:54:00
11:27 PM,30.2,28.4,93,29.79,2.5,WSW,3.5,-,N/A,,Overcast,250,2013-01-17 04:27:00
11:36 PM,30.2,28.4,93,29.79,5.0,WSW,4.6,-,N/A,,Overcast,240,2013-01-17 04:36:00
11:54 PM,28.9,28.0,96,29.83,10.0,WSW,4.6,-,N/A,,Overcast,240,2013-01-17 04:54:00